RH
74 73 74 77 80 79 74 71 70 69 69 69 67 66 65 64 63 60 55 53 54 55 55 51 50 53 52 53 57 60 63 63 63 63 63 65 73 79 72 67 70 71 72 74 75 81 85 85 85 85 84 87 89 88 91 93 94 95 97 97 96 97 97 96 96 96 95 97 99 99 99 98 98 96 93 94 91 89 94 94 91 85 81 86 92
75 74 75 79 80 79 74 72 72 72 70 70 70 69 66 65 65 63 58 54 53 54 56 51 48 52 54 56 58 58 61 62 62 62 63 66 72 79 77 71 70 69 69 69 71 79 89 89 85 86 85 86 88 88 89 91 92 94 96 96 96 96 96 96 96 96 96 96 98 99 99 98 96 94 91 91 92 90 90 93 93 88 82 84 92
76 75 78 79 78 76 73 72 72 72 70 69 71 72 70 68 69 70 67 60 55 55 57 54 51 54 54 56 59 56 57 59 60 62 63 67 72 75 76 74 73 73 71 68 67 71 86 96 93 91 89 89 91 88 89 92 92 94 94 94 95 95 94 95 97 97 98 98 99 98 95 96 97 97 95 91 92 91 89 91 93 89 83 82 90
80 78 79 79 76 74 74 73 71 71 73 72 71 72 69 66 69 72 69 62 58 59 59 58 57 56 53 54 58 56 55 57 58 63 65 66 69 69 69 72 75 77 75 72 67 62 74 93 99 98 94 93 94 90 91 94 93 94 94 94 94 94 94 94 95 95 96 98 97 94 92 96 99 98 98 95 93 91 88 90 93 92 86 81 88
80 79 79 79 78 76 75 73 72 73 76 75 68 67 66 65 67 67 65 60 59 61 58 56 56 57 55 55 57 57 56 58 60 64 66 67 69 68 68 71 73 76 79 78 73 61 63 81 91 96 98 96 96 94 94 95 95 95 95 96 95 95 96 95 95 93 93 95 94 92 92 95 99 99 98 97 96 92 87 88 93 95 89 81 86
80 81 81 79 78 76 74 72 72 73 73 73 65 63 67 66 66 63 62 60 58 60 57 56 55 55 57 57 60 62 61 63 63 65 69 71 72 71 71 73 74 76 77 76 75 63 58 70 81 89 97 99 98 97 97 96 95 97 97 98 98 97 98 97 95 95 94 94 93 93 93 94 98 99 99 98 96 94 89 87 91 95 91 82 85
81 83 82 78 76 76 75 74 76 71 69 72 67 64 68 67 67 66 63 59 57 58 57 58 59 59 59 59 63 67 65 66 67 69 73 73 71 71 73 74 75 77 75 71 72 70 61 62 73 83 90 94 98 96 95 97 96 97 97 97 97 97 98 97 95 95 96 95 93 93 92 94 97 96 98 99 96 93 90 89 90 93 92 84 84
83 85 82 77 75 75 77 78 75 71 70 73 68 67 70 69 68 69 67 60 57 58 57 59 62 61 61 62 67 68 67 66 68 73 74 70 68 69 71 73 76 76 75 71 70 74 69 66 75 84 84 86 94 98 96 97 96 96 96 96 96 96 96 96 93 93 95 96 97 96 92 94 97 96 98 99 97 94 91 91 91 91 91 86 83
86 86 82 79 78 75 77 79 75 73 74 73 70 70 71 69 68 69 70 65 59 59 59 60 62 60 60 66 69 69 69 66 66 73 74 70 67 65 65 68 73 74 73 73 71 72 73 75 82 85 83 81 87 97 100 99 98 96 97 98 98 97 95 93 92 92 95 97 98 98 95 94 96 97 99 99 96 95 92 90 91 89 90 87 84
86 85 82 81 79 76 76 78 75 74 75 72 71 72 71 70 68 67 71 69 64 64 64 64 63 60 62 69 71 70 69 64 65 72 74 72 67 62 62 62 65 71 73 71 70 71 73 76 77 77 80 83 84 90 97 100 99 98 99 99 99 99 98 96 95 94 95 96 96 97 98 97 97 97 99 100 97 94 92 90 91 91 88 86 85
85 83 82 81 78 76 77 78 75 72 74 73 70 72 73 72 70 69 69 68 68 69 68 66 63 61 66 72 72 72 71 65 65 72 75 73 70 64 64 63 61 66 70 68 67 69 72 74 74 72 76 82 83 84 91 98 99 100 100 99 100 100 99 100 99 97 96 97 97 97 99 100 99 99 99 100 98 95 94 93 93 94 89 83 84
85 84 84 82 77 76 78 78 74 72 76 76 73 75 74 72 71 72 70 65 67 72 72 70 63 62 69 74 76 75 73 70 64 68 73 72 71 68 67 68 64 63 66 64 63 67 69 72 74 74 76 79 79 79 85 93 97 99 100 100 100 100 100 100 100 100 99 99 99 99 100 99 98 99 100 99 99 96 96 95 95 96 93 85 83
85 84 84 81 77 77 77 75 73 74 77 76 76 77 74 72 69 68 69 68 69 73 77 71 58 55 62 69 77 75 71 70 63 64 68 68 71 73 71 72 69 66 63 58 59 64 66 68 73 77 78 78 76 74 77 85 94 99 100 100 100 99 100 100 99 100 100 100 100 100 100 99 99 99 99 100 100 97 95 96 96 94 95 91 84
84 83 82 79 77 78 76 74 74 74 74 74 75 75 73 72 69 64 64 68 72 75 74 65 51 49 52 55 64 69 71 69 64 66 67 66 72 76 75 74 73 70 63 56 54 58 63 66 72 79 80 78 76 73 74 82 93 100 100 99 100 100 100 100 100 99 100 100 100 100 100 100 100 100 99 99 100 99 95 96 97 93 92 92 85
82 81 79 76 77 78 74 73 74 73 71 69 70 71 71 71 69 68 62 59 67 73 72 66 58 55 52 48 48 59 71 65 58 67 69 69 74 76 77 75 73 70 63 58 55 55 60 66 71 79 82 80 77 73 73 82 92 97 100 100 99 100 100 100 100 100 99 99 100 100 99 100 100 100 99 96 97 100 97 94 96 94 90 88 86
80 77 77 77 78 76 72 72 74 73 69 68 69 69 70 67 66 72 68 57 60 69 73 73 71 64 52 45 41 44 55 50 48 60 65 64 67 71 76 74 71 67 60 59 60 55 58 64 69 76 80 80 78 74 73 83 90 92 98 100 100 100 100 100 97 98 101 99 100 100 99 100 100 100 99 96 96 99 98 95 94 94 92 88 88
78 74 76 78 77 75 73 72 74 74 70 68 71 70 69 69 68 73 75 68 63 65 73 76 75 72 61 56 52 44 45 45 47 55 58 59 61 64 72 70 68 66 58 56 58 54 53 59 66 71 75 76 76 74 73 83 90 90 97 100 99 100 100 99 88 86 99 101 99 101 99 99 100 99 100 98 98 98 97 95 91 91 93 90 89
77 75 77 77 77 77 74 71 73 74 72 70 71 70 72 77 76 73 73 74 67 61 67 71 72 74 71 68 66 59 56 52 47 47 50 55 58 61 65 64 66 66 59 55 55 55 55 58 63 67 71 72 74 74 72 82 91 91 97 100 99 100 100 100 86 74 89 101 99 100 99 99 100 100 99 99 99 99 97 95 93 92 92 93 92
79 79 78 77 78 79 76 73 73 73 73 74 73 73 78 82 82 78 73 74 70 61 61 63 64 69 71 70 69 68 67 61 53 48 46 48 52 57 58 60 65 62 57 56 55 59 64 63 63 65 67 70 73 72 70 80 91 91 95 100 100 100 98 102 92 69 77 98 100 99 100 99 100 100 100 100 99 99 98 97 97 94 91 94 94
81 80 78 78 80 80 78 76 74 73 73 75 76 80 83 85 85 83 78 76 74 67 62 60 60 65 67 65 64 66 66 64 62 57 50 45 46 49 51 58 65 57 52 58 58 59 66 66 65 65 65 68 71 71 69 75 87 91 93 97 100 101 98 101 96 71 69 94 101 99 100 99 100 100 99 100 99 99 98 97 99 97 92 92 93
82 79 77 78 80 79 79 77 75 74 75 78 84 86 86 87 88 86 82 79 77 73 68 64 63 65 64 62 61 61 62 62 61 59 54 48 46 45 46 53 59 51 47 57 59 59 65 66 66 67 66 67 69 71 71 71 81 92 94 93 96 101 99 100 99 80 72 91 100 99 100 99 100 100 99 100 99 99 100 98 99 99 97 94 91
82 80 79 78 78 77 79 79 77 77 80 84 86 86 86 89 89 88 85 81 77 76 74 69 68 69 66 59 57 57 57 56 55 57 54 50 49 43 42 48 46 42 46 55 57 57 62 65 65 68 69 68 68 69 71 70 76 90 94 89 89 97 100 99 100 91 82 92 100 99 100 100 99 100 99 100 99 99 100 100 99 100 99 98 94
82 81 81 80 80 80 81 80 79 80 83 84 82 83 85 87 86 85 85 82 78 77 77 74 70 70 68 61 58 58 56 55 53 53 50 47 46 36 35 43 33 29 43 54 55 55 58 62 65 70 72 70 69 69 71 70 74 86 92 87 84 93 100 99 100 97 92 96 100 98 100 100 99 100 99 100 100 99 99 99 99 99 99 100 98
83 82 82 83 83 84 81 77 78 82 83 82 81 83 83 82 82 79 80 79 77 74 75 75 71 68 69 66 63 61 59 59 55 51 48 44 42 33 31 38 30 26 39 46 47 50 55 58 62 69 73 71 69 70 72 71 74 84 87 83 84 92 99 100 100 100 96 97 100 98 99 100 99 100 100 99 100 99 99 99 99 100 100 100 99
82 82 83 83 83 82 78 75 79 84 84 81 81 82 80 78 77 75 75 76 76 74 74 77 74 69 67 64 62 59 56 57 52 48 48 43 40 37 32 33 31 29 35 38 38 42 49 53 57 66 72 71 70 71 73 72 74 83 83 79 85 93 96 96 98 101 98 98 100 99 99 100 100 100 100 100 99 99 99 99 99 100 100 100 99
80 82 82 82 80 79 79 80 83 84 82 81 80 80 78 73 72 73 74 76 75 75 75 77 75 71 67 60 57 55 51 52 50 46 48 43 42 46 42 34 32 30 31 34 36 38 44 48 51 61 70 71 71 71 72 74 76 80 80 78 84 93 95 90 91 99 100 98 100 100 100 100 100 100 100 99 98 98 99 99 99 100 99 99 99
79 81 82 82 81 80 80 83 84 82 80 80 78 78 74 68 69 73 74 76 74 72 73 75 75 71 66 58 53 53 52 51 49 47 50 48 45 49 48 41 35 31 29 33 36 38 44 47 46 55 68 71 71 72 73 75 75 72 73 77 82 91 96 89 85 93 99 99 99 100 100 100 100 100 100 100 97 96 97 98 98 100 99 98 99
79 81 81 82 81 80 82 83 82 81 80 79 76 75 72 67 68 71 73 73 71 70 70 70 71 68 63 57 51 52 54 52 51 51 53 53 48 46 48 47 40 31 27 30 36 39 45 49 45 48 64 69 67 73 74 73 74 70 68 75 82 89 94 88 79 83 94 99 99 99 100 100 100 100 99 100 99 96 96 96 96 98 99 98 98
83 83 82 82 81 80 82 82 81 80 79 77 75 72 70 68 69 70 70 68 68 68 67 65 65 61 59 56 51 51 54 53 54 56 57 54 49 44 45 50 48 37 29 30 35 40 45 50 46 45 59 66 64 70 73 70 72 73 70 73 79 84 87 83 73 74 88 97 99 99 100 99 100 100 100 100 100 97 95 95 94 94 95 96 98
85 84 82 82 80 81 82 81 80 80 77 75 73 70 68 68 68 68 67 65 65 66 65 63 60 57 57 55 51 51 54 54 54 56 58 55 48 43 42 49 55 48 35 29 33 42 46 48 47 48 59 65 62 67 72 70 70 73 75 75 76 77 79 77 71 71 83 93 97 100 100 100 100 99 100 100 100 98 96 94 94 92 91 91 96
84 81 80 79 79 80 80 79 79 78 76 75 72 68 65 64 63 64 63 61 61 63 63 62 58 55 58 56 52 52 52 52 52 51 53 53 49 44 40 44 56 55 40 29 31 39 46 48 47 49 61 64 61 65 70 71 70 71 75 76 74 73 72 70 68 71 81 87 92 96 94 96 100 100 100 100 100 99 97 95 95 95 91 86 88
82 78 77 77 79 80 78 77 76 75 75 74 71 67 63 61 59 58 59 58 59 62 61 59 56 52 54 54 53 53 50 47 47 46 48 50 48 46 41 38 48 55 45 33 31 34 41 49 46 46 58 60 56 62 66 67 70 70 71 74 74 72 69 66 65 70 78 81 85 89 85 86 94 98 99 100 100 100 99 97 94 94 93 86 83
81 77 74 76 79 78 75 74 74 72 72 70 68 65 60 59 59 57 56 56 56 60 60 58 56 51 49 48 48 52 51 47 46 45 46 46 45 45 43 37 42 53 51 40 34 32 35 44 43 41 50 53 49 57 63 62 66 67 68 70 72 73 71 67 64 67 74 76 78 84 82 80 85 90 93 96 99 99 99 99 95 93 93 89 85
79 73 73 77 78 75 73 72 71 69 68 65 63 60 57 57 59 57 56 55 56 58 59 57 56 53 50 47 46 50 51 49 48 48 47 46 44 45 44 42 43 51 55 47 39 35 33 38 40 39 44 46 42 50 59 59 61 64 63 65 68 71 70 68 67 70 74 73 73 79 81 77 79 82 84 88 94 98 99 100 98 96 94 91 90
77 73 75 79 76 74 72 70 68 67 65 64 61 56 54 54 56 56 56 56 57 56 55 55 54 53 51 49 50 51 51 50 49 50 50 48 46 45 44 45 47 50 53 50 43 38 35 35 38 38 42 43 39 44 54 55 56 59 57 58 64 65 64 65 67 71 75 73 69 73 78 76 75 77 78 81 87 93 98 100 99 99 98 95 93
76 75 76 78 75 73 72 68 68 67 64 63 59 53 52 52 53 55 55 56 57 55 55 55 53 54 53 51 51 51 50 49 47 48 50 50 48 47 43 41 45 48 50 50 45 40 37 36 37 38 41 42 38 41 50 50 49 53 52 52 57 58 56 58 63 67 74 74 67 67 75 75 72 73 75 78 82 87 94 100 99 99 100 98 95
75 75 75 76 75 73 71 68 67 66 64 60 56 52 52 52 53 54 54 56 57 57 58 57 56 56 56 52 50 50 50 50 49 48 51 51 48 48 46 41 42 47 48 48 46 42 39 37 36 36 39 41 38 38 47 49 44 47 49 47 51 54 51 50 55 61 69 73 65 61 70 74 70 71 74 75 78 81 89 97 99 99 99 98 97
77 76 75 76 75 72 69 67 66 65 63 59 54 52 52 53 54 55 56 57 58 59 58 57 58 58 57 55 53 51 51 51 51 51 53 54 52 50 50 47 45 48 48 47 46 43 41 37 35 34 35 40 40 37 44 50 46 45 47 44 45 49 48 46 49 53 62 70 63 52 60 70 67 67 71 73 75 78 84 93 96 96 96 96 97
80 77 75 76 74 70 68 67 66 65 64 60 54 52 51 52 54 56 58 59 60 60 59 59 61 60 58 59 57 55 55 55 56 56 55 54 53 53 55 54 52 51 47 44 43 42 40 36 33 33 33 36 38 37 41 47 44 43 47 46 42 43 44 44 47 49 55 67 62 44 47 63 64 60 65 70 73 75 78 86 91 91 92 94 96
80 76 75 75 72 69 69 69 67 67 67 62 56 51 50 52 54 56 58 60 61 61 61 62 62 60 59 60 60 59 58 56 56 58 62 62 57 54 56 57 54 52 48 44 39 37 40 38 34 34 34 34 36 37 42 44 43 43 46 47 44 41 40 40 42 46 52 64 64 44 39 56 59 52 56 65 71 73 73 79 85 86 88 92 94
81 75 72 73 71 69 70 70 70 71 69 65 59 53 50 52 55 56 56 58 60 61 61 63 62 60 61 63 62 57 52 49 46 46 54 61 59 57 60 63 59 53 48 45 40 36 37 39 38 37 35 36 37 39 45 48 46 45 46 47 45 40 39 37 37 42 51 63 67 47 35 49 56 45 47 60 67 69 69 71 77 81 85 89 92
81 76 71 72 73 71 71 72 73 75 72 68 62 55 52 54 53 55 56 56 57 60 60 62 63 61 62 63 59 51 49 50 47 44 44 46 46 46 51 61 67 63 55 48 44 40 38 39 43 43 40 41 42 43 49 54 49 44 44 45 44 41 41 40 36 36 47 63 68 49 31 42 52 42 41 53 59 63 65 63 67 76 82 85 89
81 79 73 70 72 71 72 74 76 77 76 70 59 51 52 56 56 56 58 57 57 59 59 60 63 62 61 63 61 56 56 55 52 49 47 46 46 42 40 45 54 62 65 61 54 47 41 39 44 48 46 45 45 45 52 58 51 44 42 44 47 46 43 42 39 37 44 61 68 51 29 35 48 41 37 47 53 57 61 57 59 70 78 80 84
81 82 77 72 71 70 72 75 77 79 77 68 56 47 46 52 59 59 58 59 59 58 58 59 59 60 62 65 67 66 64 60 58 56 52 49 48 45 43 39 38 44 55 64 67 61 51 44 46 52 52 50 48 48 57 63 58 50 45 44 51 53 46 42 42 42 45 56 66 56 31 30 44 39 34 43 48 52 55 52 53 65 75 77 79
82 83 80 75 74 74 75 76 77 79 76 65 57 51 42 44 57 61 58 59 59 57 58 57 56 58 61 64 67 68 63 60 62 63 59 55 52 52 54 50 44 41 42 50 61 66 61 53 50 54 57 56 52 51 59 65 63 59 51 47 54 55 47 43 45 46 47 51 65 63 34 27 42 39 32 41 44 45 50 49 49 59 71 75 75
85 84 82 79 79 79 77 76 76 79 76 64 58 56 44 39 50 58 58 59 59 56 57 57 56 58 60 60 62 64 63 62 64 64 64 64 65 67 68 64 60 59 57 58 64 69 69 63 58 59 61 61 59 58 61 62 65 67 56 48 56 54 43 43 44 43 44 46 61 67 40 27 41 39 34 42 40 37 45 47 46 55 66 72 71
87 85 83 82 82 81 79 75 75 80 77 65 60 58 49 40 46 56 61 61 60 58 57 58 59 59 59 60 59 58 62 65 63 63 64 64 63 64 64 63 64 64 63 61 61 65 69 65 62 63 60 57 56 53 49 47 59 73 62 48 56 52 38 38 38 35 38 39 52 68 52 34 40 40 37 43 37 32 39 42 43 52 61 68 69
87 85 83 83 82 82 80 76 77 82 77 65 61 60 53 44 46 57 63 62 61 60 58 59 60 59 60 61 58 57 62 63 58 56 60 62 59 56 58 60 63 61 56 51 47 50 55 54 52 52 48 45 41 38 36 31 43 68 63 45 50 49 35 36 36 33 37 36 45 67 62 41 40 41 40 42 34 29 35 38 40 48 57 64 67
86 83 82 82 80 81 82 80 81 83 74 64 62 62 57 49 47 55 61 59 59 60 59 59 60 59 60 60 58 57 59 60 54 48 53 61 59 54 55 58 60 59 57 54 48 45 46 44 42 41 39 36 32 33 33 24 31 59 63 46 48 48 36 37 38 33 36 34 41 65 65 45 40 42 41 41 33 27 33 35 36 44 52 60 65
83 82 80 79 78 80 82 81 82 80 72 64 62 62 60 52 47 54 56 53 56 59 58 59 58 57 60 60 58 59 59 58 53 45 50 60 59 52 53 57 56 53 54 60 61 57 55 53 51 49 43 39 42 46 41 28 32 58 65 52 51 49 38 39 40 34 34 33 39 62 66 47 38 41 42 41 34 28 32 34 33 38 46 54 61
81 80 78 77 76 78 79 79 80 77 70 64 61 62 62 55 49 53 53 48 53 57 55 57 57 57 60 57 53 59 62 57 51 47 49 55 58 55 52 53 52 48 52 61 62 60 60 57 56 57 53 51 57 61 57 47 48 61 65 56 54 52 43 41 40 34 33 31 36 59 70 53 38 39 43 43 37 30 32 33 31 33 40 49 57
Wind_Speed
5 5 4 4 3 3 2 2 2 2 3 3 4 4 5 5 6 7 7 7 7 7 7 7 5 4 5 5 5 5 5 5 6 6 7 7 7 9 11 10 10 10 10 10 10 11 11 11 12 13 13 13 13 13 13 14 14 15 16 17 18 20 22 22 23 23 25 25 26 27 27 27 27 26 23 21 19 19 20 21 21 19 19 19 16
5 4 4 4 3 2 2 2 3 3 4 4 4 5 5 6 7 8 9 9 8 7 7 6 5 4 4 5 4 4 5 6 7 7 8 8 7 8 12 14 12 11 11 11 10 11 12 12 11 12 13 12 12 13 13 14 15 15 15 16 17 19 21 22 23 23 24 24 24 25 28 28 29 29 26 23 21 21 21 22 22 20 19 20 18
5 4 4 3 2 2 2 3 3 4 4 4 4 5 5 5 7 8 9 9 8 7 7 6 5 4 4 4 4 5 5 6 7 7 8 8 8 8 11 14 15 13 12 11 10 10 11 12 12 12 13 13 12 12 14 14 14 14 14 15 16 17 19 20 21 22 22 22 23 25 27 28 30 30 28 25 23 21 21 22 23 23 21 21 19
5 4 3 3 2 2 2 3 4 4 5 5 5 5 5 5 6 7 8 8 7 6 6 5 5 4 4 4 4 5 5 6 6 7 8 8 9 9 9 11 14 15 14 13 14 14 13 11 10 9 11 12 11 12 13 14 14 14 14 15 16 16 17 18 19 20 21 21 22 25 26 27 29 31 30 28 25 22 21 22 22 23 22 22 20
5 4 3 2 2 2 3 3 4 5 5 5 5 6 6 6 7 7 7 7 6 6 5 4 4 4 4 4 4 5 6 6 6 7 8 9 9 9 9 10 11 13 14 16 17 19 17 15 13 11 11 11 10 11 13 14 14 14 15 16 16 16 16 17 18 19 20 21 22 23 24 24 26 28 30 30 26 23 22 23 23 22 22 22 21
5 4 2 2 2 3 3 3 4 5 4 5 5 6 6 7 7 7 7 6 5 5 5 5 5 4 4 4 4 5 6 6 7 8 9 9 9 9 10 10 10 11 12 14 16 20 20 18 16 15 12 11 10 11 13 15 14 15 17 18 18 17 17 17 17 18 19 20 21 22 23 23 24 26 30 32 28 24 22 22 25 24 23 22 22
5 4 3 2 2 3 2 3 4 5 5 5 6 5 6 6 7 8 7 6 5 5 5 5 5 4 3 4 4 5 6 6 7 9 9 8 8 10 10 10 11 11 12 12 13 18 21 19 17 17 15 13 12 13 15 16 16 17 20 21 21 20 19 18 18 19 19 19 20 21 22 22 24 26 29 32 30 25 23 22 25 26 24 23 23
5 3 2 2 2 2 2 3 5 5 5 5 6 5 6 6 7 7 7 6 6 5 5 4 4 3 3 4 4 4 6 6 7 9 8 7 9 10 11 12 12 13 13 12 12 14 18 20 19 18 17 16 15 14 15 16 17 20 22 22 22 22 20 20 19 19 20 20 19 19 21 21 22 25 27 31 30 26 23 23 24 26 25 24 24
5 3 3 3 3 2 2 3 5 5 5 5 5 5 6 6 6 6 7 7 6 6 6 5 4 2 3 4 4 5 6 6 7 7 7 7 8 9 11 12 13 14 13 13 13 13 15 18 17 17 18 18 17 15 14 16 18 20 22 23 23 22 21 21 20 19 20 20 20 19 19 20 21 22 23 28 30 26 24 24 24 26 25 24 24
5 4 3 3 3 2 2 4 5 5 5 5 4 5 6 6 6 6 6 7 7 7 6 5 4 2 2 3 4 5 5 5 7 7 6 7 8 9 10 11 13 14 14 13 14 14 14 15 14 14 16 18 19 18 16 17 20 21 23 24 24 24 23 23 22 21 21 21 20 19 18 18 19 20 22 26 29 28 26 25 25 26 25 24 24
4 4 4 4 3 2 3 3 4 4 4 4 4 5 6 6 6 6 6 6 6 7 7 5 3 1 2 3 4 5 6 6 7 7 6 6 7 9 10 11 12 13 13 13 14 14 14 14 14 13 14 16 17 20 19 18 20 22 24 26 27 26 26 25 25 25 23 22 21 20 19 19 18 19 21 25 30 30 27 27 26 24 24 24 24
4 4 4 4 3 3 3 4 4 4 4 5 6 6 6 6 6 6 7 6 6 7 7 6 3 1 2 3 4 5 6 6 7 7 6 6 7 9 10 11 12 12 12 13 13 14 14 14 14 14 14 14 15 18 19 19 20 23 25 28 29 28 28 27 27 27 25 24 23 21 21 19 18 19 19 23 28 30 28 26 24 21 22 22 22
4 4 4 4 3 3 3 4 4 4 5 5 6 6 6 6 6 6 6 6 7 8 9 6 2 1 2 4 5 4 4 5 7 8 7 7 7 8 10 11 12 12 13 13 13 14 14 14 14 14 15 15 14 15 17 18 19 23 26 29 30 30 30 29 28 28 27 27 25 24 22 20 19 20 19 21 24 26 27 26 24 21 20 20 21
5 4 4 3 3 3 4 4 4 4 5 5 6 6 6 6 6 5 4 5 6 8 11 8 4 2 1 4 5 4 3 4 6 8 8 8 8 8 9 11 13 13 12 13 14 14 14 14 14 14 14 15 14 14 16 17 19 23 26 29 32 31 31 31 30 29 28 28 28 26 24 21 21 22 20 18 22 25 29 28 25 22 20 19 20
5 4 3 3 3 3 4 4 4 5 5 5 5 6 6 6 7 6 4 4 5 8 12 11 8 5 3 2 2 3 5 3 5 7 7 8 8 8 8 10 12 12 12 13 13 13 13 14 14 14 14 15 14 14 15 16 20 22 25 29 32 32 32 31 31 30 30 29 29 28 26 23 22 23 23 18 19 26 31 30 26 23 21 19 19
5 4 3 3 3 4 4 4 4 5 5 5 5 6 6 6 6 6 5 4 4 7 10 11 12 8 3 2 1 1 2 1 3 4 5 7 8 8 8 10 11 11 12 13 13 13 13 14 14 14 14 15 14 14 15 16 19 21 23 30 32 32 32 32 32 31 31 31 30 30 29 25 23 23 24 19 16 23 29 30 26 24 21 19 20
5 4 3 3 4 4 4 4 5 5 5 5 5 5 6 5 5 5 6 5 4 5 7 9 12 12 9 4 1 1 3 5 4 2 4 4 6 7 8 9 10 11 12 14 14 14 14 14 15 14 14 15 15 14 15 16 19 20 22 29 32 32 32 32 32 32 31 32 31 31 30 27 25 24 25 21 15 16 25 29 27 25 22 19 20
5 4 3 4 4 5 5 5 5 6 6 5 6 5 5 5 5 5 5 6 5 4 6 7 9 11 11 9 7 5 5 6 5 1 3 4 4 6 8 9 10 11 13 14 14 14 14 14 15 14 13 15 15 14 15 16 19 20 21 28 31 31 31 31 31 32 32 32 32 31 30 29 27 26 25 22 18 12 17 27 27 25 24 22 20
5 4 4 4 4 5 5 6 6 6 6 6 6 5 5 6 6 5 6 6 5 5 5 5 6 8 9 9 8 7 7 6 5 3 1 2 4 5 8 9 9 11 12 12 13 14 14 14 15 14 13 14 15 14 15 16 18 19 21 27 30 30 31 31 31 32 32 32 32 31 30 30 28 28 27 24 20 16 10 21 29 27 25 25 23
5 5 4 4 5 5 6 6 6 6 6 6 5 5 5 6 6 6 7 7 6 6 6 6 6 6 6 6 6 5 6 6 5 5 4 2 2 5 7 7 7 10 11 10 11 13 13 14 15 14 13 14 15 14 15 16 18 19 21 25 29 30 31 31 32 32 32 31 31 31 30 30 29 29 29 27 23 19 14 13 25 31 29 27 25
6 5 5 5 5 6 6 7 7 6 6 6 6 6 7 6 6 6 7 7 7 7 6 7 7 7 5 5 4 3 3 4 4 5 4 3 2 4 6 5 5 9 11 9 10 11 12 13 14 15 14 14 15 15 15 16 18 20 21 23 27 30 30 31 31 31 31 30 31 31 31 30 30 29 29 28 26 21 17 12 11 22 28 29 28
7 6 5 5 6 7 7 7 7 6 6 6 6 7 7 7 7 7 7 7 8 8 8 8 8 8 7 5 5 3 2 3 4 4 3 3 3 3 5 5 4 7 9 8 9 11 12 14 15 15 15 15 15 14 15 16 18 21 21 23 26 28 29 30 31 31 31 30 30 31 31 30 30 30 29 29 28 24 20 16 11 11 19 27 31
8 6 6 6 7 8 8 7 7 7 6 6 6 7 7 6 7 7 8 8 8 8 9 9 9 8 8 7 6 5 4 4 4 5 4 3 3 3 4 4 4 7 8 7 8 11 13 14 15 16 15 15 15 15 15 15 18 21 20 22 26 27 28 30 30 30 30 30 30 30 30 30 30 30 30 29 28 27 24 19 13 12 15 22 30
9 7 7 8 8 9 8 7 7 7 6 6 7 7 6 6 6 7 8 8 8 8 9 9 8 8 8 7 6 6 6 5 5 5 5 5 4 3 4 3 3 6 8 8 8 10 13 15 16 16 15 15 15 15 15 15 18 21 20 21 25 26 28 30 29 29 29 29 30 30 30 30 31 31 30 30 29 28 26 22 16 13 13 16 22
10 9 9 9 9 9 8 7 7 7 7 7 7 7 6 7 7 8 9 9 10 10 11 10 9 8 7 7 7 7 7 6 6 6 6 6 5 4 4 4 3 4 7 9 10 10 11 15 16 16 15 15 15 15 16 15 17 21 19 19 24 26 28 31 30 28 29 28 28 29 30 30 31 31 31 30 30 29 27 24 21 18 15 12 14
12 11 10 11 10 9 8 8 8 8 8 8 8 8 7 8 8 9 10 10 10 11 11 10 9 8 7 7 7 7 7 7 7 7 7 8 7 5 3 2 4 5 6 9 12 13 12 13 16 17 16 15 15 15 15 16 17 20 19 17 20 24 27 31 31 28 28 29 28 29 30 30 31 31 31 31 30 30 29 27 24 23 20 15 11
13 12 12 12 11 10 9 9 9 9 8 9 9 8 8 8 9 10 10 10 10 11 11 11 10 9 8 8 8 7 7 7 8 8 8 8 8 8 6 2 2 5 6 7 10 14 15 12 13 17 17 15 15 15 15 15 17 20 19 17 18 21 24 30 32 28 27 28 29 29 29 30 30 31 31 31 31 31 30 29 27 26 23 19 14
13 13 13 13 11 11 10 10 10 9 9 9 8 8 8 9 9 10 10 9 10 11 11 10 10 9 9 8 8 8 8 8 8 8 8 8 8 8 8 6 4 2 5 7 7 11 15 13 12 15 17 15 14 15 14 15 17 18 17 17 16 17 21 27 32 29 26 27 28 29 29 29 30 31 31 31 31 31 31 30 29 28 25 22 18
13 13 14 13 12 11 11 11 10 9 9 9 9 9 9 9 9 9 9 9 10 11 10 10 9 9 9 8 8 9 9 9 9 8 8 8 8 9 9 8 8 4 3 6 6 8 12 13 13 14 16 16 15 15 14 15 18 17 16 17 16 16 18 22 29 30 27 25 27 28 29 28 30 31 30 31 31 31 31 31 30 29 27 24 21
13 14 15 14 13 12 11 11 10 10 10 9 9 9 9 10 9 9 9 9 10 11 10 10 9 9 9 9 9 9 9 9 9 9 8 7 8 9 10 9 9 7 5 5 6 8 10 11 13 14 16 16 15 16 14 14 20 19 15 15 16 16 16 18 26 30 29 26 25 27 28 28 29 31 30 31 31 31 31 31 30 30 28 25 23
14 16 16 14 14 13 12 12 10 10 10 10 10 10 10 10 9 9 9 9 11 11 10 9 9 9 9 9 9 9 9 9 9 9 8 8 8 9 10 10 9 8 8 6 6 8 9 9 11 13 14 14 14 15 14 13 18 19 15 14 16 16 14 16 24 29 31 29 26 27 30 30 28 29 30 30 31 31 31 31 31 30 29 27 25
15 16 15 14 14 13 13 12 11 11 10 10 10 10 10 9 9 9 10 10 11 11 10 10 9 9 9 10 10 9 9 9 9 9 9 9 10 10 9 10 9 9 9 8 7 7 9 9 9 12 14 13 13 15 14 13 15 17 15 15 16 16 14 13 19 27 32 30 28 29 32 33 31 30 31 30 31 32 32 32 31 30 30 28 27
16 16 15 15 15 14 13 12 11 11 10 10 10 10 10 10 10 10 10 11 12 11 11 11 10 10 10 11 11 10 9 9 9 9 10 11 11 11 10 10 10 10 9 8 8 8 9 9 9 11 13 13 13 15 15 14 14 15 14 15 15 15 16 13 14 23 31 31 29 28 30 33 33 33 35 34 33 34 33 34 34 32 31 30 29
16 16 15 15 15 14 14 12 12 11 11 11 10 10 11 11 10 10 11 12 12 11 11 11 10 10 10 11 11 11 10 10 10 10 10 11 11 12 11 10 10 11 10 8 7 7 9 10 10 11 12 13 14 15 15 14 14 14 14 15 15 14 16 15 13 18 26 30 29 26 27 32 33 34 36 36 36 36 35 35 36 35 34 32 30
16 16 15 16 15 15 14 13 12 11 11 11 10 11 11 11 11 11 11 12 12 11 11 11 11 10 10 10 10 9 9 9 10 10 10 10 11 11 11 11 10 10 10 9 8 7 7 9 10 11 12 13 14 15 15 13 13 13 13 14 15 14 15 16 14 16 21 25 27 25 23 28 31 31 34 36 35 36 35 36 37 37 36 35 32
16 16 15 15 16 15 14 13 13 11 11 11 11 11 11 11 11 12 12 12 11 11 11 11 11 10 10 10 9 9 9 9 9 10 10 9 10 10 9 10 10 9 10 9 9 8 7 8 10 11 11 12 13 15 15 13 12 12 11 12 14 14 16 17 15 16 19 20 24 25 22 23 28 29 31 34 34 35 36 36 37 38 37 37 34
17 17 16 16 15 15 14 14 13 12 12 12 12 12 11 11 12 12 12 12 11 11 11 11 10 9 9 10 9 9 8 9 9 9 10 10 9 9 9 9 9 9 9 9 8 8 8 8 9 11 12 12 12 14 15 14 13 13 12 11 13 13 15 18 17 17 19 17 19 24 22 19 24 26 27 30 33 35 36 35 37 38 37 37 37
18 17 17 16 15 15 14 14 13 12 12 12 12 12 12 12 12 12 13 12 12 12 11 11 10 9 9 10 9 9 9 9 9 9 9 9 9 9 9 8 8 8 8 8 8 8 8 9 9 10 12 12 12 13 15 15 14 14 14 12 13 13 14 18 19 18 19 16 16 23 24 18 19 24 24 26 31 33 35 35 36 37 37 37 37
19 18 17 16 15 15 15 14 14 13 12 12 12 12 13 13 13 13 13 13 12 12 11 11 10 10 10 10 9 9 9 8 8 8 8 8 8 8 8 7 7 7 7 7 7 7 8 9 10 11 11 12 12 13 14 13 12 14 15 14 15 15 14 16 20 20 20 18 15 20 25 20 18 22 22 23 27 30 34 36 34 35 36 36 37
19 18 17 16 15 15 14 14 13 13 13 12 12 13 13 13 13 13 13 13 13 12 12 11 10 10 10 10 9 9 9 9 8 7 6 6 6 7 7 7 7 7 6 6 7 8 8 9 10 11 11 12 13 13 14 15 14 15 17 15 15 16 15 14 18 21 22 20 15 16 23 22 17 20 21 20 23 26 31 36 35 35 37 36 36
19 18 17 16 16 15 14 14 14 13 13 12 12 13 14 14 14 14 13 13 13 13 12 11 10 10 10 10 10 10 11 11 11 10 8 6 6 6 6 6 7 7 6 6 7 8 9 9 10 11 12 13 14 15 15 16 16 16 16 15 14 16 16 14 16 21 23 22 17 15 21 22 18 19 20 19 21 22 26 34 38 37 38 38 36
19 18 17 17 16 15 15 14 14 13 12 12 14 15 15 15 14 14 13 13 13 13 12 11 11 10 10 10 10 10 10 11 12 12 11 10 10 10 9 7 6 6 6 7 8 8 9 10 10 11 12 13 15 15 15 15 15 15 15 15 14 15 16 14 15 20 25 24 19 15 19 21 18 18 20 20 20 20 23 33 38 36 37 38 37
21 19 18 18 16 16 15 15 15 14 12 13 15 17 17 16 14 13 13 13 12 12 12 11 11 11 11 11 11 9 9 9 10 10 10 10 11 12 12 12 9 7 6 7 8 9 9 10 10 10 10 12 13 14 14 14 15 15 14 14 14 14 15 15 14 18 25 26 20 14 18 21 18 17 20 21 20 19 22 32 37 36 35 37 37
24 20 19 19 18 17 16 16 15 14 13 15 16 16 18 18 16 13 13 13 12 12 11 11 11 11 11 11 11 10 9 8 9 9 8 9 10 10 12 13 14 13 10 8 8 8 9 10 10 10 10 10 11 13 14 15 15 14 13 13 13 13 13 14 14 16 23 26 20 14 17 21 19 17 18 20 20 19 21 30 36 35 34 36 37
26 22 19 19 19 18 17 16 16 14 15 17 17 15 17 19 18 14 12 12 12 11 11 11 11 11 11 11 10 10 8 8 9 8 8 8 8 9 10 11 12 14 13 12 11 10 10 9 10 10 10 9 10 12 14 15 14 13 13 14 14 13 12 12 13 14 20 25 22 15 15 21 21 18 18 19 20 18 20 27 35 35 32 33 36
27 22 19 19 19 18 17 17 15 14 17 19 18 16 16 19 19 15 11 12 12 10 11 11 10 11 11 10 10 10 10 9 8 8 8 7 6 5 5 6 6 8 9 10 10 10 9 9 9 9 9 8 9 11 13 14 13 12 13 14 14 14 11 9 9 11 16 23 23 15 13 20 22 19 18 18 19 19 19 24 33 36 32 31 34
27 22 19 19 18 17 17 17 15 14 18 20 19 17 16 18 19 14 10 11 12 10 11 11 10 10 10 10 10 10 10 9 8 8 8 6 5 4 3 4 4 5 5 6 7 7 7 7 8 7 7 7 7 9 12 14 13 11 11 11 12 12 10 7 8 10 14 21 25 16 12 18 22 20 19 18 18 20 20 21 29 35 33 29 31
24 20 18 17 17 17 16 17 16 15 19 21 20 18 16 17 19 15 11 12 12 11 11 11 10 10 10 9 10 10 10 9 8 9 9 7 5 4 4 4 4 4 4 5 6 8 8 8 8 7 7 7 7 8 12 14 13 11 9 9 11 11 11 9 9 11 12 19 25 19 12 17 21 20 19 17 16 19 21 21 26 32 32 28 28
19 18 18 17 17 17 17 18 16 16 21 23 21 19 17 18 19 15 11 12 12 11 12 12 11 10 10 10 9 9 10 10 9 9 9 7 5 4 4 4 3 4 3 3 4 7 8 8 8 8 8 7 7 8 11 13 14 13 10 10 12 12 12 12 11 12 12 16 24 21 14 15 20 20 19 17 14 17 20 21 24 28 29 27 26
20 20 19 17 16 16 17 18 16 17 22 24 22 20 18 18 18 14 12 13 12 12 12 12 11 10 11 12 10 8 9 10 10 10 9 7 5 4 3 4 3 3 3 2 2 2 5 6 7 8 8 8 7 7 9 12 15 14 11 11 13 12 12 12 12 12 10 14 22 22 14 14 19 19 19 17 13 16 20 21 23 26 27 26 25
21 21 20 17 15 15 15 17 17 18 22 24 23 20 19 19 18 14 12 13 12 12 12 12 11 10 11 13 13 10 10 10 11 12 10 7 5 3 3 4 3 3 3 2 2 2 1 2 4 5 5 6 6 4 6 10 13 12 10 11 12 11 11 12 12 12 9 11 21 22 14 14 19 19 19 17 12 14 19 20 22 26 26 25 24
Wind_Direction
163 163 157 141 134 138 132 91 62 39 23 16 13 5 358 352 346 340 332 328 326 325 326 320 315 323 331 338 348 353 358 360 357 360 358 7 13 357 359 4 357 351 346 343 342 348 346 337 333 330 327 328 325 322 316 309 306 301 296 295 292 289 288 286 282 279 278 275 269 264 262 262 262 262 262 262 263 259 255 259 262 259 251 246 245
162 163 150 138 138 137 103 69 48 34 23 18 18 10 0 355 350 341 333 329 328 330 332 325 324 342 351 355 6 11 15 16 7 7 4 7 16 6 1 3 1 358 355 350 349 357 359 350 346 343 335 332 329 325 323 319 316 312 307 304 300 296 292 288 285 282 281 279 273 268 265 263 259 257 257 256 259 257 252 255 259 261 256 246 243
165 162 147 138 142 139 93 65 43 33 24 19 18 10 0 356 353 341 334 331 330 336 337 333 341 353 3 15 20 19 25 23 14 13 10 9 15 17 10 1 358 358 1 1 356 356 1 0 359 356 351 349 345 335 331 329 325 320 316 313 310 307 302 296 292 289 286 282 277 273 269 266 259 253 251 251 252 252 247 249 256 260 259 248 242
162 159 147 139 148 132 81 59 42 30 22 19 11 0 355 354 350 339 334 333 334 343 341 342 353 356 4 23 29 26 29 24 20 19 13 13 12 14 12 3 358 356 357 3 7 6 1 2 1 356 357 358 357 350 345 341 337 333 328 326 322 317 313 307 301 297 294 289 282 278 273 269 261 252 249 249 248 248 243 243 250 256 256 247 241
158 155 144 145 153 118 80 61 41 26 20 15 360 350 351 354 351 341 338 335 340 349 345 351 358 3 12 23 33 29 29 27 24 20 18 21 14 10 9 6 4 0 357 358 7 14 11 6 4 1 357 354 354 351 347 345 345 345 342 339 335 328 325 321 315 308 303 297 290 284 277 271 264 253 249 247 244 246 243 238 241 249 253 245 238
160 154 150 164 141 105 82 61 36 21 17 8 354 351 354 359 357 348 342 338 347 352 349 355 353 6 17 24 44 39 34 30 23 26 29 27 21 18 17 14 13 12 10 1 0 11 16 14 9 11 8 358 0 356 351 351 348 348 349 348 343 336 333 330 325 320 314 306 298 290 283 273 265 257 250 245 241 244 244 238 237 242 249 243 235
163 154 153 159 125 97 72 46 32 18 14 3 350 356 2 6 4 354 347 344 353 353 353 359 353 7 16 25 49 46 41 35 30 40 38 30 29 27 24 23 21 18 18 11 1 1 9 16 14 14 14 9 12 9 3 2 357 355 354 353 349 342 336 331 327 325 324 317 307 298 290 278 267 260 254 245 239 240 241 239 237 240 244 241 232
160 157 154 139 112 95 64 32 27 15 8 356 350 5 12 13 10 359 350 346 353 355 357 3 357 10 26 37 50 46 43 35 38 49 41 33 36 31 28 28 26 21 16 13 9 359 359 9 13 9 6 8 13 12 8 7 7 3 358 357 354 350 344 337 328 324 327 328 320 309 299 290 274 264 257 245 237 237 238 238 239 240 242 239 231
159 160 152 132 115 94 64 34 23 12 360 354 359 17 20 17 11 3 353 344 351 357 357 0 358 10 39 48 52 53 47 33 40 52 40 38 36 27 26 23 21 20 15 10 9 4 357 2 8 2 353 359 7 8 8 8 10 8 2 1 359 356 354 347 339 331 330 330 328 321 309 301 286 272 258 243 235 235 236 236 239 241 241 239 232
159 158 149 131 119 94 61 36 20 8 358 358 15 27 26 22 12 4 356 347 350 354 351 351 346 357 57 62 54 54 52 38 46 52 40 40 32 21 18 13 12 11 10 10 6 5 3 0 5 2 350 354 0 0 5 7 8 9 4 2 1 360 358 354 352 345 338 333 331 330 322 312 298 279 258 242 236 234 235 234 236 239 238 236 233
158 155 148 135 120 91 53 33 17 10 7 8 20 27 26 22 13 4 357 352 354 349 343 341 339 9 80 90 73 59 51 41 48 52 43 37 28 19 16 11 9 6 5 9 8 5 5 2 3 2 354 356 358 356 359 2 3 6 4 3 2 1 0 358 356 353 347 342 337 335 331 324 314 293 266 247 239 232 228 230 231 234 233 233 232
156 150 143 131 111 77 47 31 21 21 25 23 23 26 24 18 10 3 357 359 2 353 343 335 339 71 143 131 100 77 62 49 43 45 41 28 24 23 19 14 10 8 6 7 9 8 6 4 2 0 356 355 358 356 358 1 359 2 4 3 3 2 1 359 357 355 354 351 347 342 337 331 325 311 284 261 248 232 223 225 226 228 230 231 231
153 146 137 120 96 66 43 33 35 40 40 36 32 30 25 16 3 356 360 4 6 1 349 332 322 92 167 158 133 104 79 60 42 39 37 28 29 29 20 16 13 8 8 9 9 9 8 5 2 0 357 354 356 356 359 2 358 359 3 3 3 3 1 360 358 357 357 356 354 349 343 336 330 324 303 272 253 235 223 223 223 225 228 229 229
151 143 130 111 87 61 48 43 47 50 47 44 40 32 25 17 3 356 2 6 12 11 3 356 355 359 272 186 162 154 145 100 62 51 41 31 31 30 22 16 12 8 8 10 9 9 8 5 2 0 358 356 356 356 359 2 358 359 3 4 3 3 1 1 360 358 358 358 358 355 350 344 337 334 322 286 254 236 226 221 221 223 225 225 227
151 140 124 106 83 64 61 59 55 54 52 46 41 33 24 16 8 1 351 3 30 25 19 16 8 344 273 223 169 183 188 155 79 70 61 47 36 30 28 18 12 10 11 10 8 7 5 3 2 0 359 358 357 360 1 1 359 359 3 4 3 3 1 1 1 360 0 0 360 359 356 351 344 340 335 308 261 240 227 220 218 219 223 226 226
148 136 126 108 87 78 75 74 66 59 58 52 45 36 25 17 15 10 353 3 45 39 32 28 17 5 332 288 288 234 167 47 33 86 88 58 42 34 30 19 13 15 14 11 7 4 2 1 1 1 0 360 360 3 3 2 0 359 2 4 3 3 1 1 2 1 1 2 1 1 360 356 352 348 345 331 284 250 229 217 217 218 221 226 225
144 134 125 108 95 92 87 87 79 69 67 60 52 38 27 24 25 23 11 11 34 45 44 40 32 26 19 9 314 316 37 359 341 107 109 58 39 37 32 20 15 17 14 12 8 4 3 1 2 2 1 2 3 5 7 5 4 1 2 2 2 3 2 1 2 3 3 3 2 3 3 1 358 355 351 345 320 266 232 219 220 220 219 223 226
143 134 123 115 105 98 94 94 89 80 73 63 56 47 37 37 31 29 29 23 26 44 50 52 48 42 38 39 36 25 11 341 326 34 113 86 52 38 30 20 19 18 12 10 8 5 5 3 2 2 2 5 5 7 9 6 6 5 1 2 2 3 4 1 2 5 6 4 3 4 4 4 2 359 355 351 345 310 244 227 225 223 220 221 224
143 132 121 119 107 98 99 99 96 88 80 70 63 58 50 48 42 38 41 36 36 45 45 47 54 52 52 53 49 41 23 3 350 339 346 81 65 48 31 20 25 23 12 9 7 5 4 3 3 2 3 6 6 8 10 6 5 5 1 2 4 4 5 3 2 7 9 5 4 5 5 5 4 2 0 357 352 343 292 241 231 226 223 222 223
143 132 120 118 110 103 104 104 101 91 82 78 74 72 67 58 54 51 52 49 48 52 47 40 48 54 54 57 59 57 42 27 9 345 329 341 47 50 26 20 40 31 16 11 8 5 5 4 3 4 5 7 8 9 9 6 5 4 0 0 5 5 5 5 4 8 11 8 5 6 5 6 6 5 5 5 359 349 335 278 238 228 225 223 222
143 133 124 120 114 110 112 109 102 91 83 86 85 80 77 70 65 63 63 61 55 57 58 51 50 50 44 46 50 63 68 46 17 360 349 339 358 25 10 8 48 36 20 15 12 10 8 6 6 7 7 7 9 10 9 7 4 4 358 353 0 6 6 6 4 7 11 8 7 8 7 7 7 7 7 8 7 356 346 333 265 234 228 226 224
141 134 128 124 120 117 118 113 102 92 87 89 88 82 80 79 76 73 71 71 66 63 65 62 58 51 41 40 41 40 50 47 27 14 8 350 339 10 15 8 35 36 23 15 14 14 13 11 10 10 10 9 9 8 8 7 4 5 360 347 352 3 7 7 6 6 9 8 8 9 8 8 8 9 10 10 10 4 353 343 322 272 244 234 230
143 138 133 130 126 124 122 114 101 95 92 91 88 86 86 84 82 80 76 74 74 72 68 65 64 59 51 49 48 42 37 32 22 7 6 6 346 11 34 29 45 43 28 17 17 18 17 16 14 13 12 10 11 7 6 7 4 6 4 348 346 359 8 9 7 7 8 8 9 10 10 10 10 10 11 12 12 10 4 353 335 307 274 252 239
145 142 140 137 129 128 124 112 103 98 97 95 92 91 92 90 88 84 81 78 76 74 70 65 63 63 60 57 54 50 42 31 19 8 9 9 357 15 40 38 51 49 34 25 27 28 24 21 17 15 13 11 12 8 6 9 5 5 6 351 344 355 6 8 8 8 8 9 10 11 11 12 12 11 12 13 13 12 10 5 354 336 308 277 250
149 148 146 141 133 131 127 116 111 107 104 103 99 97 95 95 94 89 85 80 77 76 72 68 65 64 63 59 56 52 45 34 25 22 17 11 7 19 42 45 43 51 47 37 34 33 30 27 21 16 15 12 10 8 8 10 6 4 7 358 345 350 2 7 8 9 9 10 12 12 13 13 13 13 12 12 14 14 13 10 5 359 347 318 274
152 150 148 144 140 137 130 121 117 112 110 108 103 102 101 99 97 91 87 82 80 79 75 73 69 66 65 62 59 54 49 41 34 33 25 21 20 5 1 61 67 58 54 45 39 33 25 25 25 18 14 12 8 7 8 8 9 7 7 6 352 348 359 6 6 10 11 11 13 13 13 14 14 14 14 12 13 14 13 13 11 7 3 354 322
152 151 148 146 143 139 131 124 120 115 113 111 106 107 106 102 98 92 89 86 84 82 79 79 74 70 68 67 65 59 52 45 41 40 33 26 23 3 347 351 80 72 56 44 43 38 25 19 25 21 13 9 7 6 6 6 15 16 8 9 2 350 355 1 2 9 13 12 14 15 14 15 15 15 15 13 13 14 13 13 14 11 8 6 356
150 149 148 147 142 138 132 125 121 117 115 112 111 113 107 103 100 95 92 89 88 86 84 81 77 74 72 71 72 64 56 51 46 44 38 29 23 14 9 1 359 54 64 43 38 38 29 19 19 19 12 8 5 5 8 7 18 24 11 9 11 357 355 358 360 9 15 14 16 16 16 16 16 16 16 15 14 14 14 14 14 14 11 10 6
147 146 147 147 142 138 133 126 123 119 117 114 114 114 109 105 102 99 97 94 91 88 85 83 81 80 78 75 76 69 60 56 50 45 39 35 30 26 26 16 5 12 49 47 37 27 25 20 15 11 9 10 7 7 12 11 18 25 12 10 15 3 356 357 1 11 17 16 17 18 17 17 17 17 17 16 16 15 15 15 15 15 13 13 12
145 146 148 146 142 139 133 128 126 121 118 117 116 115 111 108 106 102 100 98 95 91 88 87 85 85 83 79 78 73 65 59 54 47 39 39 40 37 35 29 23 24 25 46 51 26 17 20 17 7 2 6 8 10 13 11 16 20 12 9 13 4 357 351 356 10 19 18 19 20 19 20 18 18 18 18 17 17 16 15 15 16 15 15 15
148 149 149 147 144 141 135 131 128 123 121 119 118 118 116 113 109 105 103 102 99 96 93 92 90 89 87 82 79 74 67 63 58 53 47 44 45 44 42 38 33 29 27 44 62 39 20 15 14 8 1 3 8 10 13 10 12 16 12 8 9 8 4 347 349 8 21 19 20 23 21 22 21 20 20 19 19 18 17 16 16 16 16 17 18
151 152 151 150 146 142 138 135 130 125 123 122 122 122 119 116 111 108 108 106 104 102 100 97 95 92 88 84 79 74 70 68 64 58 54 50 48 46 44 44 38 31 35 49 60 50 31 15 11 10 4 5 12 13 14 13 10 13 14 10 10 11 13 356 349 7 19 18 19 23 20 19 22 22 21 21 21 19 18 17 16 15 15 17 18
154 154 153 151 147 144 140 136 131 127 126 126 127 126 121 117 114 112 112 111 109 109 107 103 99 94 91 87 81 75 72 72 69 64 58 53 52 50 45 46 44 34 33 45 53 51 37 22 18 19 12 11 17 15 13 13 10 10 13 11 11 10 11 10 358 6 17 17 17 21 18 16 19 20 21 22 21 20 20 18 18 17 15 15 17
156 157 156 152 148 145 142 137 131 129 128 129 129 128 125 121 119 118 118 118 116 115 113 108 103 99 94 91 86 80 76 73 71 66 62 58 56 54 49 47 48 40 34 37 46 49 39 28 23 23 19 18 20 16 11 8 5 6 11 10 11 10 8 11 7 5 13 16 16 20 17 12 15 17 18 21 20 19 20 19 19 19 17 15 15
159 160 157 153 149 146 143 138 135 132 130 132 131 130 129 127 125 124 124 123 122 120 117 112 109 106 100 96 90 85 79 77 73 66 62 61 58 57 54 50 48 44 39 37 39 44 42 35 26 21 20 20 20 15 7 5 3 4 11 11 10 13 9 9 9 4 8 12 14 20 19 12 12 13 13 17 19 18 20 20 19 21 20 17 15
161 162 158 153 150 148 145 141 139 137 134 134 134 132 132 132 131 130 128 128 126 124 119 115 113 110 105 100 94 90 85 78 75 68 62 60 58 57 56 54 51 46 43 40 37 38 38 37 33 25 21 19 19 14 5 4 7 5 9 12 11 15 14 11 9 4 6 8 8 15 20 13 11 11 11 15 16 16 20 22 21 22 22 20 18
163 162 159 156 153 151 149 147 144 140 138 137 136 136 137 137 136 134 132 131 128 125 120 117 116 112 107 103 95 92 88 80 76 70 63 60 58 57 56 55 53 47 44 42 37 38 38 37 35 30 26 21 17 14 6 4 8 8 9 13 11 13 15 14 11 5 6 7 5 11 17 14 11 11 12 16 15 15 18 21 23 24 23 22 21
162 163 160 158 157 155 152 150 147 143 141 138 139 142 143 142 140 137 135 133 130 127 123 119 118 114 108 103 96 91 87 82 79 74 68 63 58 56 53 51 50 46 44 42 38 39 41 39 35 31 28 22 15 12 7 4 7 8 6 9 12 13 14 14 12 7 5 5 6 9 12 13 12 10 11 14 14 14 17 20 22 24 24 24 23
162 163 163 160 158 157 154 152 150 146 143 141 143 148 148 147 145 141 139 137 134 130 127 122 119 116 110 104 99 92 86 83 80 75 70 64 59 56 49 43 41 39 41 41 38 41 42 41 40 34 28 23 17 12 7 5 12 14 8 7 9 10 14 15 13 8 4 3 4 8 10 11 13 11 10 12 12 11 14 18 20 22 23 24 25
165 165 165 161 159 158 156 154 152 149 147 146 150 154 154 153 150 147 145 142 139 135 131 126 122 118 114 108 101 92 85 83 81 79 73 64 60 55 48 44 40 37 38 38 39 44 44 42 41 35 29 24 19 13 9 10 15 15 9 7 8 8 11 17 15 10 5 0 359 6 9 8 9 11 11 13 13 10 12 15 17 19 21 21 23
168 168 168 164 161 160 159 157 154 154 153 152 158 161 160 158 154 151 149 147 144 140 136 133 127 123 118 110 105 99 91 84 80 81 84 82 71 59 48 41 38 39 41 40 41 43 45 44 41 35 30 25 18 13 12 11 11 8 5 7 11 10 9 15 18 14 8 360 355 3 9 5 5 11 12 12 13 12 13 13 12 16 18 18 19
169 169 172 169 164 163 162 160 160 159 158 163 168 167 164 161 158 155 153 151 150 146 143 140 135 130 122 117 116 111 100 88 80 77 79 81 78 72 66 58 48 44 43 46 48 45 45 45 39 33 31 25 18 14 10 7 5 4 5 8 11 10 10 12 15 14 10 2 354 1 10 5 2 9 13 11 11 13 13 9 8 12 16 15 16
173 170 174 174 171 170 168 166 166 164 167 174 173 171 169 165 160 158 157 156 156 153 151 148 143 139 132 129 131 127 115 103 93 83 79 79 79 77 74 73 71 66 55 51 49 46 49 50 42 34 32 25 18 14 8 2 1 4 7 8 8 9 11 10 8 8 7 1 352 355 9 7 2 7 12 10 9 11 8 4 5 10 14 13 14
177 172 175 176 176 176 174 173 172 169 176 179 172 171 174 168 162 162 162 162 162 161 161 157 153 150 144 142 143 140 136 129 117 103 93 86 83 81 78 75 73 73 73 71 60 49 47 51 47 37 28 21 17 14 6 358 355 359 4 8 5 4 8 11 9 4 2 0 354 351 6 7 2 5 11 9 8 9 3 0 5 10 12 11 11
183 177 177 179 178 178 176 177 175 172 180 181 171 169 176 173 167 165 167 169 169 168 169 165 162 159 155 153 152 147 151 153 141 127 117 106 95 85 78 77 72 69 71 72 69 62 52 51 53 42 27 18 15 12 3 355 351 353 360 3 1 359 1 7 10 5 2 3 357 347 1 8 2 2 8 7 6 8 2 357 3 10 13 10 8
186 181 180 180 179 178 178 178 176 175 182 184 175 170 175 176 173 169 171 175 173 172 173 168 168 168 164 162 158 154 161 165 157 148 142 133 123 105 86 86 76 60 55 52 50 52 49 48 52 43 29 21 14 8 2 357 353 350 354 357 352 350 352 357 7 11 9 9 2 348 356 7 1 358 3 1 1 7 4 357 0 9 14 9 5
188 184 182 181 179 177 179 181 178 178 186 186 180 174 174 177 177 174 175 178 175 174 174 170 171 172 171 170 165 161 166 171 171 167 159 149 143 135 122 112 97 70 56 48 51 56 52 50 52 44 31 25 18 14 13 10 2 348 344 349 345 343 349 356 10 18 16 12 8 358 352 0 359 357 357 356 359 5 6 0 359 5 12 9 1
187 185 181 180 179 176 178 181 179 181 189 188 183 179 176 176 179 180 180 180 178 177 176 175 176 176 176 177 173 169 171 174 178 175 165 158 151 140 133 129 117 104 83 68 72 73 66 60 57 47 36 28 25 26 24 22 19 3 348 353 354 352 1 7 10 15 15 12 9 2 347 353 358 355 352 352 359 3 5 4 0 2 9 9 359
180 181 179 180 181 178 177 179 177 181 190 190 186 184 181 177 180 184 185 182 182 182 180 181 182 181 183 184 178 176 178 180 186 182 168 164 165 150 144 146 136 132 118 89 79 69 60 59 52 42 36 31 32 38 32 30 33 25 8 4 4 2 8 11 7 9 15 14 7 359 347 351 357 354 350 350 359 5 4 4 2 1 5 8 1
177 180 180 178 179 179 179 180 178 183 191 191 188 188 187 182 181 186 188 183 183 184 182 185 187 186 191 193 186 181 183 187 193 188 174 171 175 161 157 164 153 144 144 152 161 57 34 35 29 23 23 20 20 30 27 27 34 31 18 9 6 5 11 11 2 1 13 17 7 359 351 353 357 356 352 348 356 7 5 2 3 3 3 5 3
177 179 180 175 175 177 178 180 181 185 191 193 192 191 191 187 185 188 191 185 184 185 183 185 189 188 192 198 196 192 189 190 195 193 185 182 184 175 178 186 174 155 155 181 213 237 315 1 5 360 359 0 357 347 348 5 18 22 17 12 10 9 12 10 3 0 9 13 6 1 354 351 355 357 355 351 352 1 2 2 4 5 3 3 3